This demonstration page uses our WeatherBlox Daily Observations layout. Learn more.

Left ArrowRight Arrow

39.92423, -83.80882

Hourly Observations for June 4, 2021

Temp ( °F °C ) Dew Point ( °F °C ) Humidity (%) Winds ( mph kmh ) Pressure ( in mb ) Visibility ( mi km ) Precip ( " mm )
12:56 am 00:56 Clear 61 16 N/A N/A WSW 6 9 29.97 1015 8 13 0.01 0.25
1:56 am 01:56 Hazy 59 15 N/A N/A WSW 6 9 29.96 1015 5 8 N/A
2:04 am 02:04 Hazy 59 15 N/A N/A WSW 6 9 29.96 1015 4 6 N/A
2:09 am 02:09 Mostly Cloudy with Mist and Fog 59 15 N/A N/A WSW 6 9 29.96 1015 3 4 N/A
2:13 am 02:13 Mostly Cloudy with Mist and Fog 61 16 N/A N/A WSW 6 9 29.95 1014 1 2 N/A
2:17 am 02:17 Mostly Cloudy with Fog 61 16 N/A N/A SW 5 7 29.95 1014 1 1 0.01 0.25
2:28 am 02:28 Cloudy with Fog 61 16 N/A N/A WSW 7 11 29.96 1014 0 0 0.01 0.25
2:56 am 02:56 Cloudy with Fog 61 16 N/A N/A W 8 13 29.96 1015 0 0 0.01 0.25
3:56 am 03:56 Cloudy with Fog 61 16 N/A N/A WSW 7 11 29.96 1015 0 0 N/A
4:19 am 04:19 Cloudy with Fog 61 16 61 16 100 100 WSW 8 13 29.97 1015 1 1 N/A
4:56 am 04:56 Cloudy with Fog 61 16 N/A N/A SW 7 11 29.98 1015 1 1 0.01 0.25
5:56 am 05:56 Cloudy with Fog 60 15.6 60 15.6 100 100 SW 6 9 29.99 1016 1 1 N/A
6:05 am 06:05 Cloudy with Fog 61 16 61 16 100 100 SW 3 6 29.99 1015 0 0 N/A
6:56 am 06:56 Cloudy with Fog 60 15.6 60 15.6 100 100 WSW 6 9 30.00 1016 0 0 N/A
7:11 am 07:11 Cloudy with Fog 61 16 61 16 100 100 SW 5 7 30.00 1016 1 1 N/A
7:18 am 07:18 Cloudy with Fog 61 16 61 16 100 100 SW 6 9 30.00 1016 0 0 N/A
7:32 am 07:32 Cloudy with Mist and Fog 61 16 61 16 100 100 SW 7 11 30.00 1016 1 1 N/A
7:36 am 07:36 Cloudy with Mist and Fog 61 16 61 16 100 100 WSW 7 11 30.00 1016 2 2 N/A
7:41 am 07:41 Cloudy with Mist and Fog 61 16 61 16 100 100 SW 8 13 30.00 1016 3 5 N/A
7:56 am 07:56 Mostly Cloudy with Mist and Fog 62 16.7 62 16.7 100 100 SW 7 11 30.01 1016 3 5 N/A
8:10 am 08:10 Partly Cloudy with Mist and Fog 63 17 63 17 100 100 SW 8 13 29.99 1016 4 6 N/A
8:56 am 08:56 Hazy 64 18 N/A N/A WSW 8 13 30.01 1016 6 10 N/A
9:56 am 09:56 Sunny 68 20 N/A N/A SW 9 15 30.02 1017 9 14 N/A
10:56 am 10:56 Mostly Cloudy 72 22.2 64 17.8 76 76 WSW 10 17 30.02 1017 10 16 N/A
11:56 am 11:56 Mostly Cloudy 73 22.8 66 18.9 79 79 WSW 10 17 30.02 1017 10 16 N/A
12:56 pm 12:56 Mostly Sunny 77 25 67 19.4 71 71 WSW 14 22 30.01 1016 10 16 N/A
1:56 pm 13:56 Sunny 81 27.2 64 17.8 57 57 W 10 17 30.01 1016 10 16 N/A
2:56 pm 14:56 Sunny 83 28.3 63 17.2 51 51 WNW 10 17 30.00 1016 10 16 N/A
3:56 pm 15:56 Mostly Sunny 84 28.9 61 16.1 46 46 WNW 12 19 29.99 1016 10 16 N/A
4:56 pm 16:56 Mostly Cloudy 84 28.9 63 17.2 49 49 WNW 8 13 29.98 1015 10 16 N/A
5:56 pm 17:56 Mostly Sunny 83 28.3 63 17.2 51 51 W 8 13 29.98 1015 10 16 N/A
6:56 pm 18:56 Sunny 82 27.8 62 16.7 51 51 W 12 19 29.98 1015 10 16 N/A
7:56 pm 19:56 Sunny 79 26.1 63 17.2 58 58 WSW 8 13 29.98 1015 10 16 N/A
8:56 pm 20:56 Sunny 74 23.3 65 18.3 74 74 SW 6 9 29.99 1016 10 16 N/A
9:56 pm 21:56 Clear 73 22.8 63 17.2 71 71 SW 7 11 30.00 1016 10 16 N/A
10:56 pm 22:56 Clear 71 21.7 63 17.2 76 76 SW 7 11 30.01 1016 10 16 N/A
11:56 pm 23:56 Clear 68 20 63 17.2 84 84 SW 7 11 30.02 1017 10 16 N/A

Powered by AerisWeather